Montgomery, AL

10:21 AM CDT on August 28, 2016 (GMT -0500)
Maxwell Air Force Base

Weather History for KMXF - March, 2013

Change the Weather History Date:

Tuesday, March 12, 2013

  Actual Average Record
Temperature  
Mean Temperature 49 °F -  
Max Temperature 62 °F 67 °F 87 °F (2006)
Min Temperature 36 °F 45 °F 26 °F (1998)
Degree Days  
Heating Degree Days 16    
Moisture  
Dew Point 33 °F    
Average Humidity 60    
Maximum Humidity 91    
Minimum Humidity 28    
Precipitation  
Precipitation 0.00 in - - ()
Sea Level Pressure  
Sea Level Pressure 30.08 in    
Wind  
Wind Speed 7 mph (NW)    
Max Wind Speed 14 mph    
Max Gust Speed 21 mph    
Visibility 10 miles    
Events      
Averages and records for this station are not official NWS values.
T = Trace of Precipitation, MM = Missing Value Source: NWS Daily Summary

Daily Weather History Graph

Daily Weather History Graph

Search for Another Location

Airport or City:

Trip Planner

Search our weather history database for the weather conditions in past years. The results will help you decide how hot, cold, wet, or windy it might be!

Date:

Astronomy

Mar. 12, 2013 Rise Set
Actual Time 6:59 AM CDT 6:51 PM CDT
Civil Twilight 6:34 AM CDT 7:15 PM CDT
Nautical Twilight 6:06 AM CDT 7:44 PM CDT
Astronomical Twilight 5:37 AM CDT 8:13 PM CDT
Moon 7:10 AM CDT (3/12) 7:58 PM CDT (3/12)
Length of Visible Light 12h 41m
Length of Day
11h 52m
New Moon, 1% of the Moon is Illuminated
Mar 12
New Moon
Mar 19
First Quarter
Mar 27
Full
Apr 2
Last Quarter
Apr 10
New

Hourly Weather History & Observations

Time (CDT) Temp. Windchill Dew Point Humidity Pressure Visibility Wind Dir Wind Speed Gust Speed Precip Events Conditions
12:58 AM 42.3 °F 39.4 °F 39.7 °F 91% 29.96 in 10.0 mi WNW 4.6 mph - N/A   Clear
1:58 AM 41.9 °F 37.5 °F 39.2 °F 90% 29.98 in 10.0 mi WNW 6.9 mph - N/A   Clear
2:58 AM 40.6 °F 36.7 °F 37.8 °F 89% 29.99 in 10.0 mi NW 5.8 mph - N/A   Clear
3:58 AM 39.9 °F 35.8 °F 35.8 °F 85% 29.99 in 10.0 mi NW 5.8 mph - N/A   Clear
4:58 AM 38.8 °F 34.6 °F 34.7 °F 85% 30.02 in 10.0 mi West 5.8 mph - N/A   Clear
5:58 AM 37.9 °F 35.5 °F 34.3 °F 87% 30.04 in 10.0 mi WNW 3.5 mph - N/A   Clear
6:58 AM 36.0 °F - 33.4 °F 91% 30.04 in 10.0 mi Variable 2.3 mph - N/A   Clear
7:58 AM 37.6 °F 34.0 °F 34.2 °F 87% 30.07 in 10.0 mi West 4.6 mph - N/A   Clear
8:58 AM 41.5 °F 37.1 °F 35.1 °F 78% 30.10 in 10.0 mi NW 6.9 mph - N/A   Clear
9:58 AM 47.1 °F - 32.5 °F 57% 30.10 in 10.0 mi North 11.5 mph 19.6 mph N/A   Clear
10:58 AM 51.1 °F - 30.7 °F 46% 30.12 in 10.0 mi NNW 12.7 mph 20.7 mph N/A   Clear
11:58 AM 53.6 °F - 30.2 °F 41% 30.12 in 10.0 mi NNW 9.2 mph 16.1 mph N/A   Clear
12:45 PM 55.4 °F - 30.2 °F 38% 30.11 in 10.0 mi WNW 13.8 mph - N/A   Clear
12:58 PM 56.5 °F - 30.2 °F 37% 30.11 in 10.0 mi NW 12.7 mph 18.4 mph N/A   Clear
1:58 PM 59.4 °F - 27.1 °F 29% 30.09 in 10.0 mi NW 8.1 mph - N/A   Clear
2:58 PM 61.0 °F - 27.1 °F 28% 30.08 in 10.0 mi NW 12.7 mph 19.6 mph N/A   Clear
3:58 PM 62.4 °F - 29.5 °F 29% 30.07 in 10.0 mi NW 12.7 mph - N/A   Clear
4:58 PM 62.4 °F - 30.9 °F 31% 30.08 in 10.0 mi NNW 12.7 mph 17.3 mph N/A   Clear
5:58 PM 61.2 °F - 32.2 °F 34% 30.08 in 10.0 mi NW 10.4 mph - N/A   Clear
6:58 PM 57.0 °F - 32.5 °F 40% 30.10 in 10.0 mi NW 5.8 mph - N/A   Clear
7:58 PM 53.8 °F - 32.5 °F 45% 30.13 in 10.0 mi NW 4.6 mph - N/A   Clear
8:58 PM 50.0 °F - 36.1 °F 59% 30.15 in 10.0 mi West 3.5 mph - N/A   Clear
9:58 PM 47.7 °F - 36.3 °F 65% 30.16 in 10.0 mi West 2.3 mph - N/A   Clear
10:58 PM 43.2 °F - 38.1 °F 82% 30.17 in 10.0 mi WNW 2.3 mph - N/A   Clear
11:56 PM 46.4 °F 45.2 °F 35.6 °F 66% 30.17 in 10.0 mi WNW 3.5 mph - N/A   Clear